| time (UTC) | temp F | wind direction | speed MPH | gust MPH | rain 1hr in | rain 24hr in | rain mn in | humidity % | barometer mb |
| 20260902115904 | 79 | 229 | 4.0 | 9.0 | 0.00 | 0.00 | 0.00 | 46 | 1018.3 |
| 20260902115404 | 79 | 209 | 6.0 | 14.0 | 0.00 | 0.00 | 0.00 | 47 | 1018.4 |
| 20260902114905 | 78 | 242 | 4.0 | 8.0 | 0.00 | 0.00 | 0.00 | 46 | 1018.4 |
| 20260902113904 | 78 | 229 | 3.0 | 7.0 | 0.00 | 0.00 | 0.00 | 47 | 1018.5 |
| 20260902113404 | 78 | 251 | 3.0 | 12.0 | 0.00 | 0.00 | 0.00 | 49 | 1018.5 |
| 20260902112904 | 78 | 193 | 2.0 | 10.0 | 0.00 | 0.00 | 0.00 | 48 | 1018.6 |
| 20260902112404 | 78 | 229 | 3.0 | 9.0 | 0.00 | 0.00 | 0.00 | 49 | 1018.6 |
| 20260902111904 | 77 | 178 | 3.0 | 9.0 | 0.00 | 0.00 | 0.00 | 51 | 1018.7 |
| 20260902111404 | 77 | 194 | 3.0 | 8.0 | 0.00 | 0.00 | 0.00 | 50 | 1018.7 |
| 20260902110904 | 76 | 273 | 4.0 | 7.0 | 0.00 | 0.00 | 0.00 | 50 | 1018.7 |
| 20260902110404 | 76 | 234 | 5.0 | 12.0 | 0.00 | 0.00 | 0.00 | 51 | 1018.8 |
| 20260902105905 | 76 | 222 | 2.0 | 8.0 | 0.00 | 0.00 | 0.00 | 50 | 1018.9 |
| 20260902104904 | 76 | 212 | 5.0 | 12.0 | 0.00 | 0.00 | 0.00 | 52 | 1019.0 |
| 20260902104404 | 76 | 266 | 3.0 | 7.0 | 0.00 | 0.00 | 0.00 | 51 | 1019.0 |
| 20260902103905 | 76 | 234 | 5.0 | 9.0 | 0.00 | 0.00 | 0.00 | 52 | 1019.1 |
| 20260902103405 | 76 | 202 | 2.0 | 5.0 | 0.00 | 0.00 | 0.00 | 52 | 1019.1 |
| 20260902102904 | 76 | 200 | 3.0 | 6.0 | 0.00 | 0.00 | 0.00 | 52 | 1019.1 |
| 20260902102404 | 76 | 171 | 3.0 | 5.0 | 0.00 | 0.00 | 0.00 | 52 | 1019.1 |
| 20260902101904 | 76 | 145 | 3.0 | 8.0 | 0.00 | 0.00 | 0.00 | 52 | 1019.2 |
| 20260902100904 | 75 | 218 | 4.0 | 8.0 | 0.00 | 0.00 | 0.00 | 54 | 1019.3 |
| 20260902100405 | 75 | 238 | 0.0 | 3.0 | 0.00 | 0.00 | 0.00 | 53 | 1019.3 |
| 20260902095904 | 75 | 283 | 2.0 | 5.0 | 0.00 | 0.00 | 0.00 | 54 | 1019.4 |
| 20260902095404 | 75 | 266 | 1.0 | 2.0 | 0.00 | 0.00 | 0.00 | 54 | 1019.3 |
| 20260902094904 | 75 | 274 | 1.0 | 3.0 | 0.00 | 0.00 | 0.00 | 53 | 1019.4 |
| 20260902094404 | 74 | 274 | 2.0 | 3.0 | 0.00 | 0.00 | 0.00 | 55 | 1019.5 |
| 20260902093904 | 74 | 273 | 2.0 | 6.0 | 0.00 | 0.00 | 0.00 | 56 | 1019.5 |
| 20260902092904 | 74 | 278 | 3.0 | 7.0 | 0.00 | 0.00 | 0.00 | 58 | 1019.6 |
| 20260902092404 | 73 | 272 | 2.0 | 5.0 | 0.00 | 0.00 | 0.00 | 58 | 1019.6 |
| 20260902091904 | 73 | 225 | 2.0 | 3.0 | 0.00 | 0.00 | 0.00 | 58 | 1019.6 |
| 20260902090904 | 72 | 264 | 3.0 | 6.0 | 0.00 | 0.00 | 0.00 | 60 | 1019.7 |
| 20260902090405 | 72 | 197 | 1.0 | 2.0 | 0.00 | 0.00 | 0.00 | 60 | 1019.8 |
| 20260902085904 | 72 | 211 | 1.0 | 3.0 | 0.00 | 0.00 | 0.00 | 61 | 1019.8 |
| 20260902085404 | 72 | 210 | 0.0 | 3.0 | 0.00 | 0.00 | 0.00 | 61 | 1019.9 |
| 20260902084905 | 71 | 210 | 1.0 | 5.0 | 0.00 | 0.00 | 0.00 | 61 | 1019.9 |
| 20260902084404 | 71 | 204 | 1.0 | 7.0 | 0.00 | 0.00 | 0.00 | 62 | 1019.9 |
| 20260902083904 | 70 | 202 | 2.0 | 3.0 | 0.00 | 0.00 | 0.00 | 64 | 1019.9 |
| 20260902083404 | 69 | 225 | 1.0 | 3.0 | 0.00 | 0.00 | 0.00 | 65 | 1019.9 |
| 20260902082904 | 69 | 284 | 1.0 | 3.0 | 0.00 | 0.00 | 0.00 | 67 | 1019.9 |
| 20260902082404 | 68 | 33 | 0.0 | 2.0 | 0.00 | 0.00 | 0.00 | 68 | 1019.9 |
| 20260902081904 | 68 | 33 | 1.0 | 3.0 | 0.00 | 0.00 | 0.00 | 68 | 1019.9 |
| 20260902081404 | 67 | 33 | 0.0 | 2.0 | 0.00 | 0.00 | 0.00 | 68 | 1019.9 |
| 20260902080904 | 66 | 33 | 1.0 | 3.0 | 0.00 | 0.00 | 0.00 | 71 | 1019.9 |
| 20260902075904 | 65 | 33 | 1.0 | 3.0 | 0.00 | 0.00 | 0.00 | 77 | 1019.8 |
| 20260902074904 | 64 | 33 | 0.0 | 1.0 | 0.00 | 0.00 | 0.00 | 82 | 1019.9 |
| 20260902074404 | 63 | 33 | 0.0 | 1.0 | 0.00 | 0.00 | 0.00 | 81 | 1019.9 |
| 20260902073904 | 62 | 33 | 0.0 | 2.0 | 0.00 | 0.00 | 0.00 | 82 | 1019.9 |
| 20260902073404 | 61 | 33 | 1.0 | 2.0 | 0.00 | 0.00 | 0.00 | 83 | 1019.8 |
| 20260902072904 | 61 | 33 | 0.0 | 2.0 | 0.00 | 0.00 | 0.00 | 87 | 1019.8 |
| 20260902072404 | 60 | 33 | 1.0 | 2.0 | 0.00 | 0.00 | 0.00 | 87 | 1019.7 |
| 20260902071904 | 59 | 33 | 1.0 | 2.0 | 0.00 | 0.00 | 0.00 | 89 | 1019.6 |
| 20260902071404 | 59 | 33 | 1.0 | 3.0 | 0.00 | 0.00 | 0.00 | 90 | 1019.6 |
| 20260902070404 | 57 | 28 | 2.0 | 3.0 | 0.00 | 0.00 | 0.00 | 91 | 1019.6 |
| 20260902065905 | 57 | 28 | 2.0 | 3.0 | 0.00 | 0.00 | 0.00 | 92 | 1019.6 |
| 20260902064905 | 56 | 5 | 0.0 | 2.0 | 0.00 | 0.00 | 0.00 | 92 | 1019.5 |
| 20260902064405 | 56 | 5 | 0.0 | 0.0 | 0.00 | 0.00 | 0.00 | 92 | 1019.5 |
| 20260902063904 | 56 | 5 | 0.0 | 0.0 | 0.00 | 0.00 | 0.00 | 92 | 1019.5 |
| 20260902063404 | 56 | 5 | 0.0 | 0.0 | 0.00 | 0.00 | 0.00 | 92 | 1019.5 |
| 20260902062404 | 55 | 5 | 0.0 | 0.0 | 0.00 | 0.00 | 0.00 | 92 | 1019.6 |
| 20260902061904 | 55 | 5 | 0.0 | 1.0 | 0.00 | 0.00 | 0.00 | 92 | 1019.6 |
| 20260902060905 | 54 | 5 | 0.0 | 2.0 | 0.00 | 0.00 | 0.00 | 92 | 1019.6 |
| 20260902060405 | 54 | 5 | 0.0 | 2.0 | 0.00 | 0.00 | 0.00 | 92 | 1019.6 |
| 20260902055904 | 54 | 5 | 0.0 | 2.0 | 0.00 | 0.00 | 0.00 | 92 | 1019.7 |
| 20260902055404 | 53 | 5 | 1.0 | 2.0 | 0.00 | 0.00 | 0.00 | 92 | 1019.7 |
| 20260902054904 | 53 | 5 | 0.0 | 0.0 | 0.00 | 0.00 | 0.00 | 92 | 1019.7 |
| 20260902053904 | 53 | 5 | 0.0 | 0.0 | 0.00 | 0.00 | 0.00 | 92 | 1019.7 |
| 20260902053405 | 53 | 5 | 0.0 | 0.0 | 0.00 | 0.00 | 0.00 | 92 | 1019.7 |
| 20260902052905 | 53 | 5 | 0.0 | 0.0 | 0.00 | 0.00 | 0.00 | 92 | 1019.7 |
| 20260902051404 | 52 | 5 | 0.0 | 1.0 | 0.00 | 0.00 | 0.00 | 92 | 1019.5 |
| 20260902050904 | 52 | 5 | 0.0 | 0.0 | 0.00 | 0.00 | 0.00 | 92 | 1019.5 |
| 20260902050404 | 52 | 5 | 0.0 | 0.0 | 0.00 | 0.00 | 0.00 | 91 | 1019.5 |
| 20260902044404 | 52 | 5 | 0.0 | 0.0 | 0.00 | 0.00 | 0.00 | 91 | 1019.4 |
| 20260902043904 | 52 | 5 | 0.0 | 0.0 | 0.00 | 0.00 | 0.00 | 91 | 1019.4 |
| 20260902043404 | 52 | 5 | 0.0 | 0.0 | 0.00 | 0.00 | 0.00 | 91 | 1019.3 |
| 20260902042904 | 52 | 5 | 0.0 | 0.0 | 0.00 | 0.00 | 0.00 | 91 | 1019.3 |
| 20260902042404 | 52 | 5 | 0.0 | 2.0 | 0.00 | 0.00 | 0.00 | 91 | 1019.3 |
| 20260902041404 | 52 | 5 | 1.0 | 2.0 | 0.00 | 0.00 | 0.00 | 91 | 1019.2 |
| 20260902040904 | 52 | 5 | 1.0 | 2.0 | 0.00 | 0.00 | 0.00 | 90 | 1019.1 |
| 20260902035904 | 52 | 5 | 0.0 | 0.0 | 0.00 | 0.00 | 0.00 | 90 | 1019.2 |
| 20260902035405 | 52 | 5 | 0.0 | 0.0 | 0.00 | 0.00 | 0.00 | 90 | 1019.2 |
| 20260902034904 | 52 | 5 | 0.0 | 0.0 | 0.00 | 0.00 | 0.00 | 90 | 1019.2 |
| 20260902034404 | 52 | 5 | 0.0 | 0.0 | 0.00 | 0.00 | 0.00 | 90 | 1019.1 |
| 20260902033904 | 52 | 5 | 0.0 | 0.0 | 0.00 | 0.00 | 0.00 | 90 | 1019.1 |
| 20260902033404 | 52 | 5 | 0.0 | 0.0 | 0.00 | 0.00 | 0.00 | 90 | 1019.1 |
| 20260902032404 | 52 | 5 | 0.0 | 0.0 | 0.00 | 0.00 | 0.00 | 90 | 1019.1 |
| 20260902031404 | 52 | 5 | 0.0 | 0.0 | 0.00 | 0.00 | 0.00 | 90 | 1019.1 |
| 20260902030904 | 52 | 5 | 0.0 | 1.0 | 0.00 | 0.00 | 0.00 | 90 | 1019.1 |
| 20260902030404 | 52 | 5 | 0.0 | 1.0 | 0.00 | 0.00 | 0.00 | 90 | 1019.2 |
| 20260902024904 | 52 | 5 | 1.0 | 2.0 | 0.00 | 0.00 | 0.00 | 90 | 1019.2 |
| 20260902024404 | 52 | 5 | 1.0 | 2.0 | 0.00 | 0.00 | 0.00 | 90 | 1019.2 |
| 20260902023904 | 52 | 5 | 0.0 | 0.0 | 0.00 | 0.00 | 0.00 | 90 | 1019.3 |
| 20260902023404 | 53 | 5 | 0.0 | 0.0 | 0.00 | 0.00 | 0.00 | 90 | 1019.4 |
| 20260902022905 | 53 | 5 | 1.0 | 2.0 | 0.00 | 0.00 | 0.00 | 90 | 1019.4 |
| 20260902022404 | 52 | 5 | 1.0 | 2.0 | 0.00 | 0.00 | 0.00 | 90 | 1019.4 |
| 20260902021905 | 52 | 5 | 0.0 | 2.0 | 0.00 | 0.00 | 0.00 | 90 | 1019.5 |
| 20260902021404 | 52 | 5 | 2.0 | 3.0 | 0.00 | 0.00 | 0.00 | 90 | 1019.5 |
| 20260902020904 | 52 | 5 | 1.0 | 2.0 | 0.00 | 0.00 | 0.00 | 90 | 1019.5 |
| 20260902020404 | 52 | 5 | 1.0 | 2.0 | 0.00 | 0.00 | 0.00 | 89 | 1019.5 |
| 20260902015904 | 52 | 5 | 1.0 | 3.0 | 0.00 | 0.00 | 0.00 | 89 | 1019.4 |
| 20260902015405 | 52 | 321 | 2.0 | 3.0 | 0.00 | 0.00 | 0.00 | 89 | 1019.4 |
| 20260902014904 | 52 | 294 | 0.0 | 3.0 | 0.00 | 0.00 | 0.00 | 89 | 1019.3 |
| 20260902014404 | 52 | 294 | 0.0 | 0.0 | 0.00 | 0.00 | 0.00 | 89 | 1019.4 |
| 20260902013904 | 53 | 294 | 0.0 | 0.0 | 0.00 | 0.00 | 0.00 | 89 | 1019.4 |
| 20260902013404 | 53 | 294 | 0.0 | 0.0 | 0.00 | 0.00 | 0.00 | 88 | 1019.4 |
| 20260902012404 | 53 | 294 | 0.0 | 0.0 | 0.00 | 0.00 | 0.00 | 88 | 1019.4 |
| 20260902011905 | 53 | 294 | 0.0 | 0.0 | 0.00 | 0.00 | 0.00 | 88 | 1019.4 |
| 20260902011404 | 53 | 294 | 0.0 | 0.0 | 0.00 | 0.00 | 0.00 | 88 | 1019.3 |
| 20260902010904 | 53 | 294 | 0.0 | 0.0 | 0.00 | 0.00 | 0.00 | 88 | 1019.3 |
| 20260902010404 | 53 | 294 | 0.0 | 0.0 | 0.00 | 0.00 | 0.00 | 88 | 1019.3 |
| 20260902005904 | 53 | 294 | 0.0 | 0.0 | 0.00 | 0.00 | 0.00 | 88 | 1019.3 |
| 20260902005404 | 53 | 294 | 0.0 | 0.0 | 0.00 | 0.00 | 0.00 | 88 | 1019.3 |
| 20260902004904 | 53 | 294 | 0.0 | 0.0 | 0.00 | 0.00 | 0.00 | 87 | 1019.3 |
| 20260902004404 | 53 | 294 | 0.0 | 0.0 | 0.00 | 0.00 | 0.00 | 87 | 1019.2 |
| 20260902003904 | 53 | 294 | 0.0 | 0.0 | 0.00 | 0.00 | 0.00 | 87 | 1019.2 |
| 20260902002905 | 54 | 294 | 0.0 | 0.0 | 0.00 | 0.00 | 0.00 | 87 | 1019.3 |
| 20260902002405 | 54 | 294 | 0.0 | 0.0 | 0.00 | 0.00 | 0.00 | 87 | 1019.3 |
| 20260902001904 | 54 | 294 | 0.0 | 0.0 | 0.00 | 0.00 | 0.00 | 87 | 1019.3 |
| 20260902001405 | 54 | 294 | 0.0 | 0.0 | 0.00 | 0.00 | 0.00 | 86 | 1019.3 |
| 20260902000905 | 54 | 294 | 0.0 | 0.0 | 0.00 | 0.00 | 0.00 | 87 | 1019.3 |
| 20260902000406 | 54 | 294 | 0.0 | 0.0 | 0.00 | 0.00 | 0.00 | 86 | 1019.3 |
| 20260901235904 | 54 | 294 | 0.0 | 0.0 | 0.00 | 0.00 | 0.00 | 86 | 1019.2 |
| 20260901235406 | 54 | 294 | 0.0 | 0.0 | 0.00 | 0.00 | 0.00 | 86 | 1019.2 |
| 20260901234904 | 54 | 294 | 0.0 | 0.0 | 0.00 | 0.00 | 0.00 | 86 | 1019.3 |
| 20260901234404 | 55 | 294 | 0.0 | 0.0 | 0.00 | 0.00 | 0.00 | 86 | 1019.2 |
| 20260901233904 | 55 | 294 | 0.0 | 0.0 | 0.00 | 0.00 | 0.00 | 86 | 1019.2 |
| 20260901233404 | 55 | 294 | 0.0 | 0.0 | 0.00 | 0.00 | 0.00 | 86 | 1019.2 |
| 20260901232404 | 55 | 294 | 0.0 | 0.0 | 0.00 | 0.00 | 0.00 | 85 | 1019.1 |
| 20260901231404 | 55 | 294 | 0.0 | 0.0 | 0.00 | 0.00 | 0.00 | 86 | 1019.1 |
| 20260901230904 | 55 | 294 | 0.0 | 13.0 | 0.00 | 0.00 | 0.00 | 86 | 1019.1 |
| 20260901230404 | 56 | 294 | 0.0 | 0.0 | 0.00 | 0.00 | 0.00 | 85 | 1019.1 |
| 20260901225905 | 56 | 294 | 0.0 | 0.0 | 0.00 | 0.00 | 0.00 | 85 | 1019.2 |
| 20260901225404 | 56 | 294 | 0.0 | 0.0 | 0.00 | 0.00 | 0.00 | 85 | 1019.2 |
| 20260901224904 | 56 | 294 | 0.0 | 0.0 | 0.00 | 0.00 | 0.00 | 85 | 1019.1 |
| 20260901224404 | 56 | 294 | 0.0 | 0.0 | 0.00 | 0.00 | 0.00 | 85 | 1019.1 |
| 20260901223405 | 56 | 294 | 0.0 | 0.0 | 0.00 | 0.00 | 0.00 | 84 | 1019.1 |
| 20260901222904 | 56 | 294 | 0.0 | 0.0 | 0.00 | 0.00 | 0.00 | 84 | 1019.1 |
| 20260901222404 | 56 | 294 | 0.0 | 0.0 | 0.00 | 0.00 | 0.00 | 83 | 1019.2 |
| 20260901221404 | 57 | 294 | 0.0 | 0.0 | 0.00 | 0.00 | 0.00 | 83 | 1019.2 |
| 20260901220904 | 57 | 294 | 0.0 | 0.0 | 0.00 | 0.00 | 0.00 | 83 | 1019.1 |
| 20260901215904 | 57 | 294 | 0.0 | 0.0 | 0.00 | 0.00 | 0.00 | 82 | 1019.1 |
| 20260901215404 | 57 | 294 | 0.0 | 0.0 | 0.00 | 0.00 | 0.00 | 82 | 1019.1 |
| 20260901214905 | 57 | 294 | 0.0 | 0.0 | 0.00 | 0.00 | 0.00 | 82 | 1019.1 |
| 20260901214404 | 58 | 294 | 0.0 | 0.0 | 0.00 | 0.00 | 0.00 | 82 | 1019.1 |
| 20260901212904 | 58 | 294 | 0.0 | 0.0 | 0.00 | 0.00 | 0.00 | 81 | 1019.1 |
| 20260901212405 | 58 | 294 | 0.0 | 0.0 | 0.00 | 0.00 | 0.00 | 81 | 1019.1 |
| 20260901211904 | 58 | 294 | 0.0 | 0.0 | 0.00 | 0.00 | 0.00 | 81 | 1019.1 |
| 20260901211405 | 59 | 294 | 0.0 | 0.0 | 0.00 | 0.00 | 0.00 | 80 | 1019.0 |
| 20260901210904 | 59 | 294 | 0.0 | 0.0 | 0.00 | 0.00 | 0.00 | 79 | 1019.0 |
| 20260901210404 | 59 | 294 | 0.0 | 0.0 | 0.00 | 0.00 | 0.00 | 79 | 1018.9 |
| 20260901205404 | 59 | 294 | 0.0 | 0.0 | 0.00 | 0.00 | 0.00 | 79 | 1018.9 |
| 20260901204905 | 60 | 294 | 0.0 | 0.0 | 0.00 | 0.00 | 0.00 | 78 | 1018.9 |
| 20260901204404 | 60 | 294 | 0.0 | 0.0 | 0.00 | 0.00 | 0.00 | 78 | 1018.9 |
| 20260901203904 | 60 | 294 | 0.0 | 0.0 | 0.00 | 0.00 | 0.00 | 78 | 1018.8 |
| 20260901202904 | 60 | 294 | 0.0 | 0.0 | 0.00 | 0.00 | 0.00 | 77 | 1018.8 |
| 20260901202404 | 61 | 294 | 0.0 | 0.0 | 0.00 | 0.00 | 0.00 | 76 | 1018.8 |
| 20260901201904 | 61 | 294 | 0.0 | 1.0 | 0.00 | 0.00 | 0.00 | 76 | 1018.7 |
| 20260901201404 | 61 | 294 | 1.0 | 3.0 | 0.00 | 0.00 | 0.00 | 76 | 1018.7 |
| 20260901200404 | 61 | 294 | 1.0 | 3.0 | 0.00 | 0.00 | 0.00 | 75 | 1018.7 |
| 20260901195904 | 62 | 293 | 1.0 | 3.0 | 0.00 | 0.00 | 0.00 | 76 | 1018.7 |
| 20260901195404 | 62 | 292 | 2.0 | 3.0 | 0.00 | 0.00 | 0.00 | 74 | 1018.6 |
| 20260901194905 | 62 | 292 | 1.0 | 2.0 | 0.00 | 0.00 | 0.00 | 74 | 1018.6 |
| 20260901194404 | 62 | 292 | 0.0 | 1.0 | 0.00 | 0.00 | 0.00 | 73 | 1018.5 |
| 20260901193904 | 63 | 292 | 2.0 | 3.0 | 0.00 | 0.00 | 0.00 | 73 | 1018.6 |
| 20260901193405 | 63 | 292 | 0.0 | 0.0 | 0.00 | 0.00 | 0.00 | 72 | 1018.6 |
| 20260901192905 | 63 | 292 | 0.0 | 0.0 | 0.00 | 0.00 | 0.00 | 71 | 1018.5 |
| 20260901192404 | 63 | 292 | 0.0 | 0.0 | 0.00 | 0.00 | 0.00 | 71 | 1018.5 |
| 20260901191905 | 64 | 292 | 0.0 | 1.0 | 0.00 | 0.00 | 0.00 | 71 | 1018.5 |
| 20260901191405 | 64 | 292 | 0.0 | 1.0 | 0.00 | 0.00 | 0.00 | 70 | 1018.5 |
| 20260901190904 | 64 | 292 | 0.0 | 1.0 | 0.00 | 0.00 | 0.00 | 70 | 1018.5 |
| 20260901190405 | 65 | 292 | 0.0 | 0.0 | 0.00 | 0.00 | 0.00 | 70 | 1018.5 |
| 20260901185904 | 65 | 292 | 0.0 | 0.0 | 0.00 | 0.00 | 0.00 | 69 | 1018.5 |
| 20260901185404 | 65 | 292 | 0.0 | 0.0 | 0.00 | 0.00 | 0.00 | 68 | 1018.4 |
| 20260901184904 | 66 | 292 | 0.0 | 2.0 | 0.00 | 0.00 | 0.00 | 67 | 1018.4 |
| 20260901184404 | 66 | 292 | 0.0 | 3.0 | 0.00 | 0.00 | 0.00 | 66 | 1018.4 |
| 20260901183904 | 66 | 292 | 0.0 | 0.0 | 0.00 | 0.00 | 0.00 | 66 | 1018.4 |
| 20260901182904 | 67 | 292 | 0.0 | 1.0 | 0.00 | 0.00 | 0.00 | 65 | 1018.3 |
| 20260901182404 | 68 | 292 | 2.0 | 2.0 | 0.00 | 0.00 | 0.00 | 64 | 1018.3 |
| 20260901181405 | 69 | 292 | 0.0 | 0.0 | 0.00 | 0.00 | 0.00 | 62 | 1018.2 |
| 20260901180404 | 70 | 292 | 0.0 | 1.0 | 0.00 | 0.00 | 0.00 | 60 | 1018.1 |
| 20260901175904 | 70 | 292 | 0.0 | 0.0 | 0.00 | 0.00 | 0.00 | 60 | 1018.1 |
| 20260901175405 | 71 | 292 | 0.0 | 0.0 | 0.00 | 0.00 | 0.00 | 58 | 1018.0 |
| 20260901174404 | 71 | 292 | 0.0 | 0.0 | 0.00 | 0.00 | 0.00 | 56 | 1017.9 |
| 20260901173904 | 72 | 292 | 0.0 | 0.0 | 0.00 | 0.00 | 0.00 | 55 | 1017.8 |
| 20260901172905 | 72 | 292 | 0.0 | 0.0 | 0.00 | 0.00 | 0.00 | 54 | 1017.7 |
| 20260901172404 | 73 | 292 | 0.0 | 0.0 | 0.00 | 0.00 | 0.00 | 53 | 1017.7 |
| 20260901171904 | 73 | 292 | 0.0 | 1.0 | 0.00 | 0.00 | 0.00 | 52 | 1017.6 |
| 20260901171404 | 73 | 292 | 0.0 | 3.0 | 0.00 | 0.00 | 0.00 | 52 | 1017.7 |
| 20260901170904 | 74 | 292 | 2.0 | 5.0 | 0.00 | 0.00 | 0.00 | 52 | 1017.7 |
| 20260901170404 | 74 | 294 | 0.0 | 1.0 | 0.00 | 0.00 | 0.00 | 51 | 1017.7 |
| 20260901165904 | 74 | 294 | 0.0 | 2.0 | 0.00 | 0.00 | 0.00 | 51 | 1017.6 |
| 20260901165404 | 75 | 294 | 0.0 | 2.0 | 0.00 | 0.00 | 0.00 | 51 | 1017.6 |
| 20260901164905 | 75 | 294 | 1.0 | 3.0 | 0.00 | 0.00 | 0.00 | 50 | 1017.6 |
| 20260901164404 | 75 | 304 | 2.0 | 5.0 | 0.00 | 0.00 | 0.00 | 49 | 1017.6 |
| 20260901163904 | 76 | 301 | 2.0 | 5.0 | 0.00 | 0.00 | 0.00 | 49 | 1017.6 |
| 20260901163404 | 76 | 288 | 1.0 | 3.0 | 0.00 | 0.00 | 0.00 | 49 | 1017.7 |
| 20260901162904 | 76 | 300 | 2.0 | 6.0 | 0.00 | 0.00 | 0.00 | 48 | 1017.7 |
| 20260901162404 | 77 | 291 | 2.0 | 3.0 | 0.00 | 0.00 | 0.00 | 48 | 1017.7 |
| 20260901161904 | 77 | 296 | 2.0 | 5.0 | 0.00 | 0.00 | 0.00 | 47 | 1017.6 |
| 20260901161404 | 77 | 295 | 2.0 | 5.0 | 0.00 | 0.00 | 0.00 | 46 | 1017.6 |
| 20260901160904 | 78 | 292 | 3.0 | 6.0 | 0.00 | 0.00 | 0.00 | 45 | 1017.7 |
| 20260901160404 | 78 | 304 | 4.0 | 7.0 | 0.00 | 0.00 | 0.00 | 45 | 1017.7 |
| 20260901155404 | 78 | 330 | 3.0 | 7.0 | 0.00 | 0.00 | 0.00 | 46 | 1017.7 |
| 20260901154904 | 78 | 293 | 3.0 | 6.0 | 0.00 | 0.00 | 0.00 | 46 | 1017.6 |
| 20260901154404 | 78 | 294 | 4.0 | 7.0 | 0.00 | 0.00 | 0.00 | 46 | 1017.6 |
| 20260901153904 | 78 | 289 | 2.0 | 6.0 | 0.00 | 0.00 | 0.00 | 46 | 1017.6 |
| 20260901153404 | 78 | 309 | 2.0 | 6.0 | 0.00 | 0.00 | 0.00 | 46 | 1017.5 |
| 20260901152904 | 78 | 307 | 3.0 | 12.0 | 0.00 | 0.00 | 0.00 | 46 | 1017.5 |
| 20260901152404 | 78 | 296 | 4.0 | 7.0 | 0.00 | 0.00 | 0.00 | 46 | 1017.5 |
| 20260901151904 | 78 | 281 | 2.0 | 6.0 | 0.00 | 0.00 | 0.00 | 46 | 1017.4 |
| 20260901151404 | 78 | 270 | 2.0 | 5.0 | 0.00 | 0.00 | 0.00 | 46 | 1017.4 |
| 20260901150904 | 78 | 287 | 2.0 | 6.0 | 0.00 | 0.00 | 0.00 | 44 | 1017.4 |
| 20260901150404 | 79 | 302 | 3.0 | 7.0 | 0.00 | 0.00 | 0.00 | 44 | 1017.4 |
| 20260901145904 | 79 | 285 | 5.0 | 10.0 | 0.00 | 0.00 | 0.00 | 44 | 1017.5 |
| 20260901145405 | 79 | 294 | 5.0 | 10.0 | 0.00 | 0.00 | 0.00 | 43 | 1017.5 |
| 20260901144904 | 80 | 301 | 5.0 | 9.0 | 0.00 | 0.00 | 0.00 | 43 | 1017.5 |
| 20260901144405 | 80 | 290 | 7.0 | 12.0 | 0.00 | 0.00 | 0.00 | 42 | 1017.4 |
| 20260901143904 | 80 | 262 | 3.0 | 8.0 | 0.00 | 0.00 | 0.00 | 45 | 1017.4 |
| 20260901143404 | 80 | 231 | 2.0 | 6.0 | 0.00 | 0.00 | 0.00 | 44 | 1017.4 |
| 20260901142904 | 79 | 315 | 7.0 | 12.0 | 0.00 | 0.00 | 0.00 | 43 | 1017.4 |
| 20260901142404 | 79 | 290 | 5.0 | 12.0 | 0.00 | 0.00 | 0.00 | 44 | 1017.4 |
| 20260901141904 | 78 | 254 | 2.0 | 6.0 | 0.00 | 0.00 | 0.00 | 46 | 1017.3 |
| 20260901140404 | 79 | 277 | 3.0 | 8.0 | 0.00 | 0.00 | 0.00 | 45 | 1017.4 |
| 20260901135906 | 79 | 288 | 5.0 | 8.0 | 0.00 | 0.00 | 0.00 | 45 | 1017.4 |
| 20260901135404 | 79 | 240 | 4.0 | 9.0 | 0.00 | 0.00 | 0.00 | 46 | 1017.4 |
| 20260901134904 | 80 | 234 | 3.0 | 9.0 | 0.00 | 0.00 | 0.00 | 44 | 1017.5 |
| 20260901133904 | 80 | 287 | 3.0 | 10.0 | 0.00 | 0.01 | 0.00 | 44 | 1017.5 |
| 20260901133404 | 79 | 308 | 7.0 | 10.0 | 0.00 | 0.01 | 0.00 | 44 | 1017.5 |
| 20260901132904 | 79 | 301 | 8.0 | 13.0 | 0.00 | 0.01 | 0.00 | 46 | 1017.5 |
| 20260901132405 | 79 | 275 | 2.0 | 10.0 | 0.00 | 0.01 | 0.00 | 46 | 1017.5 |
| 20260901131905 | 78 | 238 | 3.0 | 9.0 | 0.00 | 0.01 | 0.00 | 49 | 1017.5 |
| 20260901131404 | 77 | 225 | 3.0 | 9.0 | 0.00 | 0.01 | 0.00 | 51 | 1017.5 |
| 20260901130904 | 77 | 232 | 3.0 | 10.0 | 0.00 | 0.01 | 0.00 | 53 | 1017.6 |
| 20260901130405 | 76 | 246 | 5.0 | 10.0 | 0.00 | 0.01 | 0.00 | 50 | 1017.6 |
| 20260901125904 | 76 | 233 | 3.0 | 7.0 | 0.00 | 0.01 | 0.00 | 52 | 1017.6 |
| 20260901125404 | 76 | 291 | 4.0 | 7.0 | 0.00 | 0.01 | 0.00 | 52 | 1017.6 |
| 20260901124904 | 76 | 286 | 6.0 | 12.0 | 0.00 | 0.01 | 0.00 | 50 | 1017.7 |
| 20260901124405 | 76 | 227 | 3.0 | 9.0 | 0.00 | 0.01 | 0.00 | 52 | 1017.6 |
| 20260901123904 | 75 | 327 | 3.0 | 9.0 | 0.00 | 0.01 | 0.00 | 53 | 1017.7 |
| 20260901123404 | 75 | 286 | 4.0 | 7.0 | 0.00 | 0.01 | 0.00 | 52 | 1017.7 |
| 20260901122904 | 75 | 298 | 4.0 | 7.0 | 0.00 | 0.01 | 0.00 | 53 | 1017.7 |
| 20260901122404 | 75 | 295 | 3.0 | 8.0 | 0.00 | 0.01 | 0.00 | 54 | 1017.7 |
| 20260901121904 | 74 | 219 | 2.0 | 7.0 | 0.00 | 0.01 | 0.00 | 55 | 1017.7 |
| 20260901121405 | 74 | 281 | 2.0 | 5.0 | 0.00 | 0.01 | 0.00 | 54 | 1017.7 |
| 20260901120905 | 74 | 320 | 3.0 | 8.0 | 0.00 | 0.01 | 0.00 | 55 | 1017.7 |
| 20260901120405 | 74 | 273 | 4.0 | 9.0 | 0.00 | 0.01 | 0.00 | 54 | 1017.7 |